x

8551762 - Delaware City, De (deld1) Weather Station

11:54pm - Mon 19th Feb 2018 All times are EST. -5 hours from GMT.

  • Wind
    3mph, 5mph gusts
  • Sea Temp 38°f
  • Air Temp 44°f
  • Sea Pressure 1027.3mb
  • 8551762 - Delaware City, De
  • 8551762 - Delaware City, De

More Historic Weather Station data

Upgrade to MSW Pro to gain access to the past 30 days of data for over 8000 Wavebouys and Weather Stations around the globe.

Join

Comparision Forecast

View Surf forecast
   
Mon 02/19 11:54pm 3 5 mph 1027.3mb 38f 44f
11:48pm 3 5 mph 1027.3mb 38f 44f
11:42pm 2 3 mph 1027.4mb 38f 44f
11:36pm 2 5 mph 1027.4mb 38f 44f
11:30pm 2 3 mph 1027.4mb 38f 43f
11:24pm 3 3 mph 1027.5mb 38f 43f
11:18pm 2 3 mph 1027.5mb 38f 43f
11:12pm 3 5 mph 1027.5mb 38f 43f
11:06pm 3 3 mph 1027.6mb 38f 43f
11:00pm 2 2 mph 1027.6mb 38f 44f
10:54pm 1 3 mph 1027.6mb 38f 44f
10:48pm 3 3 mph 1027.6mb 38f 44f
10:42pm 2 3 mph 1027.7mb 38f 44f
10:36pm 2 2 mph 1027.7mb 38f 44f
10:30pm 2 2 mph 1027.7mb 38f 44f
10:24pm 1 2 mph 1027.8mb 38f 44f
10:18pm 1 1 mph 1027.8mb 38f 44f
10:12pm 1 2 mph 1027.8mb 38f 44f
10:06pm  -  1 mph 1027.8mb 38f 44f
10:00pm 1 1 mph 1027.8mb 38f 44f
9:54pm 1 2 mph 1027.8mb 38f 44f
9:48pm 2 3 mph 1027.8mb 38f 44f
9:42pm 2 5 mph 1027.8mb 38f 44f
9:36pm 1 5 mph 1027.8mb 38f 44f
9:30pm 3 5 mph 1027.7mb 38f 44f
9:24pm 2 3 mph 1027.6mb 38f 44f
9:18pm 2 3 mph 1027.6mb 38f 44f
9:12pm 2 6 mph 1027.6mb 38f 44f
9:06pm 2 5 mph 1027.5mb 38f 44f
9:00pm 2 5 mph 1027.5mb 38f 44f
8:54pm 3 5 mph 1027.6mb 38f 44f
8:48pm 5 6 mph 1027.7mb 38f 44f
8:42pm 3 6 mph 1027.8mb 39f 44f
8:36pm 2 5 mph 1027.8mb 39f 44f
8:30pm 3 5 mph 1027.8mb 39f 44f
8:24pm 5 7 mph 1027.6mb 39f 44f
8:18pm 6 7 mph 1027.7mb 39f 44f
8:12pm 5 6 mph 1027.7mb 39f 45f
8:06pm 3 6 mph 1027.7mb 39f 45f
8:00pm 5 8 mph 1027.6mb 39f 45f
7:54pm 5 8 mph 1027.7mb 39f 45f
7:48pm 6 8 mph 1027.5mb 39f 45f
7:42pm 5 7 mph 1027.5mb 39f 45f
7:36pm 5 7 mph 1027.5mb 39f 45f
7:30pm 5 6 mph 1027.5mb 39f 44f
7:24pm 3 5 mph 1027.6mb 38f 44f
7:18pm 3 5 mph 1027.7mb 37f 44f
7:12pm 3 5 mph 1027.8mb 37f 44f
7:06pm 3 5 mph 1028mb 37f 44f
7:00pm 3 5 mph 1028.1mb 37f 45f
6:54pm 3 6 mph 1028mb 37f 45f
6:48pm 3 6 mph 1028mb 37f 45f
6:42pm 2 5 mph 1027.9mb 37f 45f
6:36pm 2 7 mph 1027.7mb 37f 45f
6:30pm 5 6 mph 1027.7mb 37f 45f
6:24pm 6 6 mph 1027.7mb 37f 45f
6:18pm 3 6 mph 1028mb 37f 45f
6:12pm 3 5 mph 1028.1mb 37f 45f
6:06pm 3 5 mph 1028.1mb 37f 46f
6:00pm 3 5 mph 1028.1mb 37f 46f
5:54pm 3 7 mph 1028.1mb 37f 46f
5:48pm 5 6 mph 1027.9mb 37f 46f
5:42pm 3 5 mph 1028.1mb 37f 46f
5:36pm 3 7 mph 1027.9mb 37f 45f
5:30pm 5 6 mph 1027.7mb 37f 45f
5:24pm 2 5 mph 1028mb 37f 45f
5:18pm 1 2 mph 1028.2mb 37f 45f
5:12pm 2 3 mph 1028.1mb 37f 45f
5:06pm 2 3 mph 1028.1mb 37f 45f
5:00pm 1 3 mph 1028.4mb 37f 45f
4:54pm 2 6 mph 1028.2mb 37f 45f
4:48pm 3 6 mph 1028.1mb 37f 45f
4:42pm 5 6 mph 1028.2mb 37f 45f
4:36pm 3 6 mph 1028.4mb 37f 46f
4:30pm 2 3 mph 1028.8mb 37f 46f
4:24pm 3 5 mph 1028.9mb 37f 46f
4:18pm 2 5 mph 1028.9mb 37f 46f
4:12pm 2 5 mph 1029mb 37f 46f
4:06pm 2 3 mph 1029mb 37f 47f
4:00pm 2 3 mph 1028.7mb 37f 47f
3:54pm  -  3 mph 1028.7mb 37f 47f
3:48pm 3 5 mph 1028.8mb 37f 47f
3:42pm 3 3 mph 1028.6mb 37f 47f
3:36pm 2 5 mph 1028.6mb 37f 47f
3:30pm 3 3 mph 1028.6mb 37f 47f
3:24pm 3 5 mph 1028.6mb 37f 47f
3:18pm 3 5 mph 1028.7mb 37f 47f
3:12pm 3 6 mph 1028.7mb 37f 47f
3:06pm 3 5 mph 1028.9mb 37f 47f
3:00pm 3 6 mph 1029mb 37f 47f
2:54pm 3 5 mph 1028.9mb 36f 47f
2:48pm 2 2 mph 1028.9mb 36f 46f
2:42pm 2 3 mph 1028.8mb 36f 46f
2:36pm 2 6 mph 1028.8mb 36f 46f
2:30pm 3 6 mph 1028.7mb 36f 46f
2:24pm 6 7 mph 1028.7mb 36f 46f
2:18pm 5 7 mph 1028.7mb 36f 46f
2:12pm 5 6 mph 1029mb 36f 46f
2:06pm 3 6 mph 1029.1mb 36f 45f
2:00pm 3 6 mph 1029.2mb 36f 45f
1:54pm 2 5 mph 1029.2mb 36f 45f
1:48pm 3 5 mph 1029.4mb 36f 45f
1:42pm 3 5 mph 1029.4mb 36f 45f
1:36pm 3 7 mph 1029.6mb 37f 45f
1:30pm 5 7 mph 1029.6mb 37f 45f
1:24pm 6 8 mph 1029.9mb 37f 45f
1:18pm 5 6 mph 1029.9mb 36f 45f
1:12pm 2 5 mph 1030mb 36f 44f
1:06pm 5 6 mph 1030.2mb 37f 44f
1:00pm 5 6 mph 1030.2mb 37f 44f
12:54pm 5 5 mph 1030.3mb 37f 43f
12:48pm 3 5 mph 1030.5mb 37f 44f
12:42pm 2 3 mph 1030.8mb 37f 43f
12:36pm 2 2 mph 1030.9mb 37f 43f
12:30pm 2 3 mph 1031mb 37f 43f
12:24pm 2 3 mph 1031.3mb 37f 44f
12:18pm 3 5 mph 1031.5mb 37f 44f
12:12pm 3 5 mph 1031.6mb 37f 44f
12:06pm 3 5 mph 1031.7mb 37f 44f
12:00pm  -  3 mph 1031.8mb 37f 44f
11:54am  -  2 mph 1032mb 37f 44f
11:48am 1 2 mph 1032mb 37f 44f
11:42am 2 3 mph 1032.2mb 37f 44f
11:36am 2 5 mph 1032.1mb 37f 44f
11:30am 2 5 mph 1032.2mb 37f 43f
11:24am 3 5 mph 1032.3mb 37f 43f
11:18am 2 3 mph 1032.3mb 38f 43f
11:12am 2 5 mph 1032.4mb 38f 43f
11:06am 3 6 mph 1032.4mb 37f 43f
11:00am 3 6 mph 1032.5mb 37f 43f
10:30am 7 9 mph 1032.8mb 38f 43f
10:24am 6 8 mph 1032.7mb 37f 43f
10:18am 5 8 mph 1032.6mb 37f 43f
10:12am 7 8 mph 1032.6mb 37f 42f
10:06am 7 10 mph 1032.4mb 37f 42f
10:00am 6 8 mph 1032.4mb 37f 42f
9:54am 6 9 mph 1032.3mb 38f 42f
9:48am 6 10 mph 1032.2mb 38f 42f
9:42am 6 10 mph 1032.1mb 38f 41f
9:36am 6 9 mph 1032.3mb 37f 42f
9:30am 7 9 mph 1032.3mb 37f 42f
9:24am 6 8 mph 1032.7mb 37f 41f
9:18am 5 6 mph 1033mb 37f 41f
9:12am 5 7 mph 1033.1mb 38f 41f
9:06am 5 7 mph 1033.1mb 38f 42f
9:00am 5 6 mph 1033mb 38f 42f
8:54am 5 6 mph 1033.1mb 38f 41f
8:48am  -  3 mph 1033.2mb 38f 40f
8:42am 2 3 mph 1033.2mb 38f 39f
8:36am 2 3 mph 1033.1mb 38f 39f
8:30am 3 5 mph 1032.8mb 38f 38f
8:24am 3 5 mph 1032.8mb 38f 38f
8:18am 3 5 mph 1032.8mb 39f 38f
8:12am 5 6 mph 1032.9mb 39f 38f
8:06am 6 6 mph 1032.6mb 39f 38f
8:00am 5 6 mph 1032.6mb 39f 38f
7:48am 2 2 mph 1033mb 39f 38f
7:42am  -  1 mph 1033.1mb 39f 38f
7:36am  -  2 mph 1033.2mb 39f 38f
7:30am 2 3 mph 1033.4mb 38f 37f
7:24am  -  2 mph 1033.2mb 38f 37f
7:18am 2 2 mph 1033.2mb 38f 36f
7:12am 1 2 mph 1033.1mb 38f 37f
7:06am 2 3 mph 1032.8mb 38f 37f
7:00am 1 2 mph 1032.8mb 38f 37f
6:54am 2 3 mph 1032.9mb 38f 37f
6:48am 2 3 mph 1033mb 38f 37f
6:42am  -  1 mph 1032.9mb 37f 37f
6:36am  -  1 mph 1033mb 37f 37f
6:30am 1 2 mph 1032.7mb 38f 37f
6:24am 2 2 mph 1032.7mb 38f 37f
6:18am 2 2 mph 1032.6mb 37f 37f
6:12am 2 2 mph 1032.9mb 38f 37f
6:06am 1 1 mph 1032.9mb 37f 37f
6:00am  -  0 mph 1033.1mb 37f 36f
5:54am  -  0 mph 1033.2mb 36f 36f
5:48am  -  0 mph 1033.2mb 36f 36f
5:42am  -  0 mph 1033mb 36f 36f
5:36am  -  1 mph 1032.9mb 36f 36f
5:30am  -  1 mph 1033mb 36f 36f
5:24am 1 2 mph 1033.2mb 36f 36f
5:18am 1 2 mph 1033.4mb 36f 37f
5:12am 1 3 mph 1033.4mb 36f 37f
5:06am 2 3 mph 1033.3mb 36f 37f
5:00am 2 3 mph 1033.4mb 36f 37f
4:54am 2 3 mph 1033.3mb 36f 37f
4:48am 2 3 mph 1033.3mb 36f 37f
4:42am 2 5 mph 1033.4mb 36f 37f
4:36am 3 6 mph 1033.4mb 36f 37f
4:30am 5 6 mph 1033.3mb 36f 37f
4:24am 5 7 mph 1033.2mb 36f 37f
4:18am 6 7 mph 1033.1mb 36f 37f
4:12am 6 8 mph 1032.9mb 36f 37f
4:06am 5 8 mph 1033mb 36f 37f
4:00am 6 8 mph 1033mb 36f 37f
3:54am 6 8 mph 1033.1mb 36f 37f
3:48am 6 8 mph 1032.9mb 36f 37f
3:42am 6 7 mph 1032.9mb 36f 37f
3:36am 6 8 mph 1032.7mb 36f 37f
3:30am 5 7 mph 1032.7mb 36f 37f
3:24am 5 7 mph 1032.7mb 36f 37f
3:18am 5 7 mph 1032.8mb 36f 37f
3:12am 5 7 mph 1032.9mb 36f 37f
3:06am 5 7 mph 1033mb 36f 37f
3:00am 6 7 mph 1033mb 36f 37f
2:54am 5 7 mph 1033.4mb 36f 37f
2:48am 6 8 mph 1033.4mb 36f 37f
2:42am 6 7 mph 1033.3mb 36f 36f
2:36am 2 5 mph 1033.4mb 36f 36f
2:30am 2 5 mph 1033.3mb 36f 36f
2:24am 3 5 mph 1033.2mb 36f 36f
2:18am 2 3 mph 1033.3mb 36f 36f
2:12am 2 5 mph 1033.3mb 36f 35f
2:06am 3 6 mph 1033.3mb 36f 36f
2:00am 3 7 mph 1033.3mb 36f 35f
1:54am 2 3 mph 1033.4mb 36f 35f
1:48am 3 3 mph 1033.3mb 36f 35f
1:42am 2 5 mph 1033.2mb 36f 35f
1:36am 3 5 mph 1033.2mb 36f 35f
1:30am 5 6 mph 1033mb 36f 35f
1:24am 3 6 mph 1033mb 36f 35f
1:18am 5 6 mph 1033.1mb 36f 35f
1:12am 5 6 mph 1033mb 36f 35f
1:06am 5 5 mph 1032.9mb 36f 35f
1:00am 3 5 mph 1033mb 36f 35f
12:54am 3 5 mph 1032.9mb 36f 35f
12:48am 5 6 mph 1032.9mb 36f 35f
12:42am 5 7 mph 1033mb 36f 36f
12:36am 5 6 mph 1033mb 36f 35f
12:30am 3 7 mph 1033mb 37f 36f
12:24am 3 6 mph 1033.1mb 37f 36f
12:18am 3 6 mph 1033.1mb 37f 36f
12:12am 3 5 mph 1033.2mb 37f 36f
12:06am 3 5 mph 1033.3mb 37f 36f
12:00am 2 3 mph 1033.4mb 37f 36f
Sun 02/18 11:54pm 2 3 mph 1033.4mb 37f 36f
11:48pm 3 5 mph 1033.4mb 37f 36f
11:42pm 1 3 mph 1033.4mb 37f 35f
11:36pm 2 3 mph 1033.4mb 37f 36f
11:30pm 2 3 mph 1033.5mb 37f 36f
11:24pm 2 3 mph 1033.6mb 37f 36f
11:18pm 3 3 mph 1033.7mb 37f 36f
11:12pm 3 3 mph 1033.7mb 37f 36f
11:06pm 2 5 mph 1033.9mb 37f 37f
11:00pm 3 5 mph 1033.7mb 37f 37f
10:54pm 2 3 mph 1033.5mb 37f 36f
10:48pm 3 3 mph 1033.4mb 38f 36f
10:42pm 2 3 mph 1033.4mb 38f 37f
10:36pm 2 5 mph 1033.3mb 38f 36f
10:30pm 3 5 mph 1033.4mb 38f 36f
10:24pm 2 3 mph 1033.2mb 37f 37f
10:18pm 2 3 mph 1033.1mb 37f 37f
10:12pm 3 5 mph 1033mb 37f 37f
10:06pm 2 6 mph 1032.8mb 37f 37f
10:00pm 6 6 mph 1032.6mb 37f 37f
9:54pm 3 5 mph 1032.5mb 37f 37f
9:48pm 3 5 mph 1032.4mb 37f 37f
9:42pm 5 5 mph 1032.2mb 38f 37f
9:36pm 3 5 mph 1032.3mb 38f 37f
9:30pm 5 6 mph 1032.1mb 38f 37f
9:24pm 5 6 mph 1032.2mb 38f 38f
9:18pm 3 5 mph 1032.1mb 38f 38f
9:12pm 5 5 mph 1032.3mb 38f 38f
9:06pm 1 2 mph 1032.3mb 38f 38f
9:00pm 2 3 mph 1032.4mb 38f 38f
8:54pm 3 3 mph 1032.4mb 38f 38f
8:48pm 2 3 mph 1032.3mb 38f 38f
8:42pm 3 3 mph 1032.4mb 38f 38f
8:36pm 3 3 mph 1032.2mb 38f 38f
8:30pm 3 5 mph 1032.4mb 39f 38f
8:24pm 3 3 mph 1032.3mb 39f 38f
8:18pm 2 3 mph 1032.2mb 39f 38f
8:12pm 3 3 mph 1032.1mb 39f 38f
8:06pm  -  2 mph 1032mb 39f 38f
8:00pm 2 3 mph 1031.9mb 39f 38f
7:54pm 2 2 mph 1031.9mb 39f 38f
7:48pm  -  1 mph 1031.8mb 39f 38f
7:42pm 1 2 mph 1031.9mb 39f 38f
7:36pm 1 1 mph 1031.9mb 39f 39f
7:30pm  -  2 mph 1032mb 39f 39f
7:24pm  -  2 mph 1032mb 39f 40f
7:18pm  -  2 mph 1032mb 39f 40f
7:12pm  -  1 mph 1031.9mb 39f 40f
7:06pm  -  1 mph 1031.9mb 39f 40f
7:00pm  -  0 mph 1031.8mb 39f 40f
6:54pm  -  1 mph 1031.8mb 39f 40f
6:48pm 1 2 mph 1031.8mb 39f 41f
6:42pm  -  1 mph 1031.7mb 39f 41f
6:36pm  -  0 mph 1031.6mb 39f 41f
6:30pm  -  3 mph 1031.6mb 39f 41f
6:24pm 2 3 mph 1031.6mb 39f 41f
6:18pm  -  1 mph 1031.4mb 38f 41f
6:12pm  -  2 mph 1031.3mb 38f 40f
6:06pm 2 5 mph 1031.2mb 38f 41f
6:00pm 6 6 mph 1031.2mb 38f 42f
5:54pm 3 6 mph 1031.2mb 38f 42f
5:48pm 5 6 mph 1031.1mb 38f 43f
5:42pm 5 6 mph 1031.1mb 38f 42f
5:36pm 5 6 mph 1030.9mb 38f 43f
5:30pm 6 7 mph 1030.8mb 38f 44f
5:24pm 5 8 mph 1030.9mb 38f 42f
5:18pm 7 8 mph 1030.5mb 39f 43f
5:12pm 6 8 mph 1030.6mb 38f 44f
5:06pm 6 8 mph 1030.4mb 38f 45f
5:00pm 6 9 mph 1030.4mb 38f 44f
4:54pm 7 9 mph 1030.3mb 37f 45f
4:48pm 6 8 mph 1030.5mb 37f 45f
4:42pm 6 7 mph 1030.5mb 37f 45f
4:36pm 6 8 mph 1030.5mb 37f 45f
4:30pm 7 9 mph 1030.3mb 37f 45f
4:24pm 7 10 mph 1030.3mb 37f 45f
4:18pm 8 10 mph 1030.1mb 37f 45f
4:12pm 5 10 mph 1030.1mb 37f 46f
4:06pm 9 11 mph 1029.8mb 37f 45f
4:00pm 5 9 mph 1030mb 37f 46f
3:54pm 6 8 mph 1029.8mb 37f 45f
3:48pm 6 9 mph 1029.9mb 37f 45f
3:42pm 8 11 mph 1029.9mb 37f 45f
3:36pm 7 11 mph 1029.9mb 37f 45f
3:30pm 9 14 mph 1029.9mb 37f 45f
3:24pm 6 11 mph 1029.7mb 37f 45f
3:18pm 7 10 mph 1029.6mb 37f 44f
3:12pm 7 10 mph 1029.5mb 37f 44f
3:06pm 2 8 mph 1029.6mb 37f 45f
3:00pm 5 13 mph 1029.4mb 37f 45f
2:54pm 7 9 mph 1029.3mb 37f 44f
2:48pm 6 13 mph 1029.5mb 37f 44f
2:42pm 7 11 mph 1029.4mb 37f 44f
2:36pm 6 11 mph 1029.4mb 37f 44f
2:30pm 11 14 mph 1029.3mb 37f 44f
2:24pm 7 13 mph 1029.3mb 37f 43f
2:18pm 9 13 mph 1029.1mb 37f 43f
2:12pm 7 14 mph 1028.9mb 37f 43f
2:06pm 8 13 mph 1029mb 37f 43f
2:00pm 8 16 mph 1029.1mb 37f 43f
1:54pm 9 13 mph 1029.1mb 37f 43f
1:48pm 7 13 mph 1029.1mb 37f 42f
1:42pm 11 17 mph 1029.3mb 37f 42f
1:36pm 11 15 mph 1029.5mb 37f 42f
1:30pm 11 15 mph 1029.7mb 37f 42f
1:24pm 13 17 mph 1029.5mb 37f 42f
1:18pm 10 17 mph 1029.8mb 36f 42f
1:12pm 8 18 mph 1029.8mb 36f 42f
1:06pm 7 15 mph 1029.8mb 36f 42f
1:00pm 13 18 mph 1029.7mb 36f 42f
12:54pm 9 15 mph 1029.8mb 36f 42f
12:48pm 9 14 mph 1029.8mb 36f 41f
12:42pm 9 14 mph 1029.6mb 37f 41f
12:36pm 9 14 mph 1029.6mb 37f 41f
12:30pm 8 15 mph 1029.6mb 37f 41f
12:24pm 13 18 mph 1029.5mb 37f 41f
12:18pm 10 15 mph 1029.3mb 37f 41f
12:12pm 7 10 mph 1029.5mb 36f 41f
12:06pm 9 14 mph 1029.5mb 36f 40f
12:00pm 9 14 mph 1029.3mb 36f 40f
11:54am 9 13 mph 1029.2mb 36f 40f
11:48am 10 16 mph 1029.3mb 36f 40f
11:42am 10 16 mph 1029.3mb 37f 40f
11:36am 13 17 mph 1029.2mb 37f 40f
11:30am 11 15 mph 1029.3mb 37f 40f
11:24am 9 17 mph 1029.4mb 37f 40f
11:18am 11 16 mph 1029.2mb 37f 40f
11:12am 11 16 mph 1029mb 37f 40f
11:06am 10 21 mph 1029mb 37f 40f
11:00am 13 18 mph 1029.1mb 37f 39f
10:54am 10 16 mph 1029.1mb 37f 40f
10:48am 10 14 mph 1029.1mb 37f 39f
10:42am 11 14 mph 1029mb 37f 39f
10:36am 9 15 mph 1028.9mb 37f 39f
10:30am 10 15 mph 1028.9mb 37f 39f
10:24am 10 15 mph 1028.8mb 37f 39f
10:18am 9 14 mph 1028.8mb 37f 39f
10:12am 10 15 mph 1028.6mb 37f 39f
10:06am 9 13 mph 1028.4mb 37f 39f
10:00am 10 14 mph 1028.2mb 36f 38f
9:54am 8 11 mph 1028.1mb 36f 39f
9:48am 10 16 mph 1028.1mb 36f 38f
9:42am 10 14 mph 1028mb 36f 38f
9:36am 8 13 mph 1027.8mb 36f 38f
9:30am 9 14 mph 1027.5mb 36f 38f
9:24am 13 15 mph 1027.2mb 37f 38f
9:18am 8 11 mph 1027.1mb 36f 38f
9:12am 7 15 mph 1027.1mb 36f 38f
9:06am 8 11 mph 1026.9mb 36f 37f
9:00am 8 13 mph 1026.7mb 36f 37f
8:54am 8 14 mph 1026.5mb 36f 37f
8:48am 7 14 mph 1026.5mb 36f 37f
8:42am 9 14 mph 1026.5mb 36f 37f
8:36am 9 13 mph 1026.2mb 36f 37f
8:30am 7 11 mph 1026mb 37f 37f
8:24am 9 13 mph 1025.7mb 37f 37f
8:18am 8 13 mph 1025.6mb 37f 37f
8:12am 7 14 mph 1025.4mb 37f 37f
8:06am 7 14 mph 1025.3mb 37f 37f
8:00am 6 9 mph 1025.2mb 37f 36f
7:54am 5 6 mph 1025.2mb 37f 36f
7:48am 6 9 mph 1025mb 37f 35f
7:42am 5 7 mph 1024.9mb 37f 35f
7:36am 6 7 mph 1024.5mb 37f 35f
7:30am 5 8 mph 1024.3mb 37f 34f
7:24am 5 8 mph 1023.8mb 36f 34f
7:18am 5 8 mph 1023.5mb 36f 34f
7:12am 6 8 mph 1023.5mb 36f 33f
7:06am 5 7 mph 1023.4mb 36f 33f
7:00am 5 7 mph 1023.1mb 36f 33f
6:54am 5 8 mph 1023.1mb 36f 33f
6:48am 5 7 mph 1022.9mb 36f 33f
6:42am 2 7 mph 1022.7mb 36f 33f
6:36am 5 7 mph 1022.7mb 36f 33f
6:30am 6 8 mph 1022.5mb 36f 33f
6:24am 5 7 mph 1022.3mb 36f 33f
6:18am 3 9 mph 1022mb 36f 33f
6:12am 5 7 mph 1021.8mb 36f 34f
6:06am 3 8 mph 1021.8mb 36f 34f
6:00am 6 8 mph 1021.6mb 36f 34f
5:54am 6 13 mph 1021.4mb 36f 34f
5:48am 5 9 mph 1021.4mb 36f 35f
5:42am 7 11 mph 1021.2mb 36f 35f
5:36am 8 11 mph 1021.1mb 36f 35f
5:30am 7 13 mph 1020.9mb 36f 35f
5:24am 9 15 mph 1020.6mb 36f 35f
5:18am 5 8 mph 1020.5mb 36f 35f
5:12am 5 8 mph 1020.5mb 36f 34f
5:06am 5 7 mph 1020.5mb 36f 34f
5:00am 7 10 mph 1020.4mb 36f 34f
4:54am 5 8 mph 1020.2mb 36f 34f
4:48am 6 8 mph 1019.9mb 36f 34f
4:42am 5 9 mph 1019.8mb 35f 34f
4:36am 7 10 mph 1019.8mb 36f 34f
4:30am 6 10 mph 1019.7mb 35f 34f
4:24am 6 9 mph 1019.3mb 35f 34f
4:18am 6 7 mph 1019.2mb 35f 34f
4:12am 9 14 mph 1019mb 36f 35f
4:06am 6 9 mph 1018.9mb 36f 34f
4:00am 7 10 mph 1018.7mb 36f 34f
3:54am 5 11 mph 1018.5mb 36f 34f
3:48am 5 10 mph 1018.3mb 36f 34f
3:42am 5 11 mph 1018.2mb 36f 34f
3:36am 5 11 mph 1018mb 36f 34f
3:30am 9 14 mph 1017.9mb 36f 34f
3:24am 6 11 mph 1018mb 36f 34f
3:18am 7 15 mph 1017.8mb 36f 34f
3:12am 9 15 mph 1018.1mb 36f 34f
3:06am 7 13 mph 1017.4mb 36f 34f
3:00am 7 10 mph 1017.4mb 36f 33f
2:54am 3 8 mph 1017.2mb 36f 33f
2:48am 5 9 mph 1016.9mb 36f 33f
2:42am 5 7 mph 1016.9mb 36f 33f
2:36am 2 6 mph 1017mb 36f 33f
2:30am 3 6 mph 1017mb 36f 33f
2:24am 3 7 mph 1016.9mb 36f 33f
2:18am 3 6 mph 1017mb 36f 33f
2:12am 3 7 mph 1017.2mb 36f 33f
2:06am 5 7 mph 1017mb 36f 33f
2:00am 2 6 mph 1016.7mb 36f 33f
1:54am 2 6 mph 1017mb 36f 33f
1:48am 5 7 mph 1017.1mb 36f 33f
1:42am 5 8 mph 1017.1mb 36f 33f
1:36am 6 8 mph 1017.2mb 36f 33f
1:30am 7 9 mph 1017mb 36f 33f
1:24am 6 9 mph 1016.8mb 36f 33f
1:18am 6 7 mph 1016.8mb 36f 33f
1:12am 5 6 mph 1016.8mb 36f 33f
1:06am 2 3 mph 1016.6mb 36f 33f
1:00am 3 6 mph 1016.4mb 36f 33f
12:54am 3 7 mph 1016.5mb 36f 33f
12:48am 3 6 mph 1016.3mb 36f -
12:42am 5 6 mph 1016.4mb 36f -
12:36am 6 6 mph 1016.4mb 36f -
12:30am 3 6 mph 1016.2mb 36f 33f
12:24am 3 6 mph 1016.3mb 36f 33f
12:18am 6 7 mph 1016.6mb 36f 33f
12:12am 6 7 mph 1016.5mb 36f 33f
12:06am 2 5 mph 1016.6mb 36f 33f
12:00am 3 5 mph 1016.7mb 36f 33f
Sat 02/17 11:54pm 5 6 mph 1016.9mb 36f 33f
11:48pm 5 7 mph 1017mb 36f 33f
11:42pm 6 7 mph 1016.8mb 36f 33f
11:36pm 6 8 mph 1016.9mb 36f 33f
11:30pm 6 8 mph 1016.9mb 36f 33f
11:24pm 7 8 mph 1017.1mb 36f 33f
11:18pm 6 8 mph 1017.3mb 36f 33f
11:12pm 6 7 mph 1017.4mb 36f 33f
11:06pm 3 5 mph 1017.4mb 36f 33f
11:00pm 6 8 mph 1017.6mb 36f 33f
10:54pm 6 8 mph 1017.7mb 36f 33f
10:48pm 6 7 mph 1017.7mb 37f 33f
10:42pm 3 7 mph 1017.9mb 37f 33f
10:36pm 5 7 mph 1017.8mb 37f 33f
10:30pm 2 5 mph 1017.9mb 37f 33f
10:24pm 3 5 mph 1017.8mb 37f 33f
10:18pm 3 6 mph 1017.9mb 37f 34f
10:12pm 5 6 mph 1018.2mb 37f 34f
10:06pm 2 3 mph 1018.3mb 37f 33f
10:00pm 2 6 mph 1018.4mb 37f 33f
9:54pm 5 6 mph 1018.6mb 36f 33f
9:48pm 1 3 mph 1018.3mb 36f 33f
9:42pm 2 3 mph 1018.4mb 36f 33f
9:36pm  -  0 mph 1018.3mb 36f 33f
9:30pm  -  2 mph 1018.5mb 36f 33f
9:24pm  -  3 mph 1018.4mb 36f 33f
9:18pm 3 6 mph 1018.3mb 36f 33f
9:12pm 6 7 mph 1017.9mb 36f 33f
9:06pm 6 9 mph 1018mb 36f 33f
9:00pm 7 9 mph 1018mb 36f 33f
8:54pm 6 9 mph 1018.1mb 36f 33f
8:48pm 6 8 mph 1018.5mb 36f 33f
8:42pm 5 7 mph 1018.9mb 36f 32f
8:36pm 3 5 mph 1019.6mb 36f 32f
8:30pm 3 6 mph 1019.6mb 36f 32f
8:24pm 6 7 mph 1019.8mb 36f 33f
8:18pm 5 6 mph 1019.8mb 37f 33f
8:12pm 3 5 mph 1019.9mb 37f 33f
8:06pm 3 6 mph 1019.9mb 37f 33f
8:00pm 5 6 mph 1020mb 37f 33f
7:54pm 3 5 mph 1020.3mb 37f 33f
7:48pm 3 5 mph 1020.5mb 37f 33f
7:42pm 3 5 mph 1020.5mb 37f 33f
7:36pm 5 6 mph 1020.4mb 37f 34f
7:30pm 5 6 mph 1020.6mb 37f 34f
7:24pm 3 5 mph 1020.7mb 38f 34f
7:18pm 3 3 mph 1020.7mb 38f 33f
7:12pm 2 5 mph 1020.6mb 38f 33f
7:06pm 3 8 mph 1020.9mb 38f 33f
7:00pm 5 10 mph 1021mb 38f 33f
6:54pm 7 13 mph 1020.9mb 39f 33f
6:48pm 11 15 mph 1020.7mb 39f 34f
6:42pm 13 15 mph 1020.5mb 38f 33f
6:36pm 8 15 mph 1020.9mb 38f 33f
6:30pm 10 17 mph 1021mb 39f 33f
6:24pm 14 17 mph 1020.9mb 38f 33f
6:18pm 14 16 mph 1021mb 37f 33f
6:12pm 10 13 mph 1021.2mb 37f 33f
6:06pm 8 11 mph 1021.7mb 37f 33f
6:00pm 7 10 mph 1022.1mb 38f 33f
5:54pm 5 9 mph 1022.5mb 38f 33f
5:48pm 6 9 mph 1022.8mb 38f 33f
5:42pm 7 9 mph 1022.4mb 38f 33f
5:36pm 6 10 mph 1022.3mb 38f 33f
5:30pm 5 6 mph 1022.9mb 37f 33f
5:24pm 6 7 mph 1023.2mb 37f 32f
5:18pm 5 6 mph 1023.4mb 37f 33f
5:12pm 3 7 mph 1023.9mb 37f 33f
5:06pm 5 7 mph 1024.2mb 37f 33f
5:00pm 5 6 mph 1024.3mb 37f 33f
4:54pm 3 8 mph 1024.5mb 37f 33f
4:48pm 6 7 mph 1024.5mb 37f 33f
4:42pm 5 8 mph 1025.1mb 37f 34f
4:36pm 5 8 mph 1025.1mb 37f 34f
4:30pm 7 10 mph 1025.2mb 37f 35f
4:24pm 6 9 mph 1024.5mb 37f 35f
4:18pm 8 10 mph 1024.1mb 37f 35f
4:12pm 10 15 mph 1024.6mb 37f 36f
4:06pm 8 11 mph 1024.5mb 37f 37f
4:00pm 6 8 mph 1024.6mb 37f 38f
3:54pm 6 9 mph 1024.2mb 37f 37f
3:48pm 6 10 mph 1024mb 37f 38f
3:42pm 8 11 mph 1023.9mb 37f 38f
3:36pm 7 11 mph 1024.1mb 37f 38f
3:30pm 7 11 mph 1024.6mb 37f 38f
3:24pm 8 11 mph 1025.2mb 37f 37f
3:18pm 7 8 mph 1025.3mb 37f 38f
3:12pm 7 9 mph 1025.5mb 37f 37f
3:06pm 5 10 mph 1025.9mb 37f 37f
3:00pm 6 9 mph 1025.8mb 37f 37f
2:54pm 6 8 mph 1025.8mb 37f 37f
2:48pm 7 10 mph 1025.8mb 37f 37f
2:42pm 6 8 mph 1025.9mb 37f 37f
2:36pm 5 8 mph 1026.1mb 37f 37f
2:30pm 6 10 mph 1026mb 37f 37f
2:24pm 5 10 mph 1025.9mb 37f 37f
2:18pm 7 9 mph 1026.2mb 37f 37f
2:12pm 7 11 mph 1026.1mb 37f 37f
2:06pm 8 10 mph 1026mb 37f 37f
2:00pm 7 11 mph 1025.9mb 37f 37f
1:54pm 8 13 mph 1025.8mb 36f 37f
1:48pm 7 14 mph 1025.4mb 36f 37f
1:42pm 8 14 mph 1025.6mb 36f 37f
1:36pm 9 13 mph 1025.5mb 36f 37f
1:30pm 7 13 mph 1025.8mb 36f 37f
1:24pm 8 16 mph 1025.4mb 36f 37f
1:18pm 11 16 mph 1025.3mb 36f 37f
1:12pm 10 16 mph 1025.4mb 36f 37f
1:06pm 8 15 mph 1025.4mb 37f 37f
1:00pm 11 16 mph 1025.7mb 37f 37f
12:54pm 10 14 mph 1026.2mb 37f 37f
12:48pm 10 16 mph 1026.6mb 37f 37f
12:42pm 11 17 mph 1026.9mb 37f 37f
12:36pm 14 17 mph 1027mb 37f 38f
12:30pm 11 17 mph 1027.2mb 37f 38f
12:24pm 13 18 mph 1027.2mb 37f 37f
12:18pm 10 16 mph 1027.5mb 37f 38f
12:12pm 10 18 mph 1027.5mb 37f 37f
12:06pm 8 15 mph 1027.6mb 36f 38f
12:00pm 9 15 mph 1027.9mb 36f 38f
11:54am 9 15 mph 1027.8mb 37f 38f
11:48am 9 13 mph 1027.9mb 37f 37f
11:42am 10 16 mph 1028.3mb 37f 37f
11:36am 7 14 mph 1028.3mb 37f 37f
11:30am 9 15 mph 1028.3mb 37f 37f
11:24am 8 21 mph 1028.4mb 37f 37f
11:18am 13 17 mph 1028.7mb 37f 36f
11:12am 8 13 mph 1028.9mb 37f 36f
11:06am 10 14 mph 1028.8mb 37f 36f
11:00am 10 16 mph 1028.6mb 37f 35f
10:54am 10 14 mph 1028.6mb 36f 35f
10:48am 11 14 mph 1029mb 36f 34f
10:42am 8 9 mph 1029.3mb 36f 34f
10:36am 8 9 mph 1029.3mb 37f 34f
10:30am 8 10 mph 1029.3mb 37f 33f
10:24am 7 10 mph 1029.3mb 37f 33f
10:18am 7 10 mph 1029.5mb 37f 33f
10:12am 7 10 mph 1029.5mb 37f 33f
10:06am 9 11 mph 1029.5mb 37f 33f
10:00am 9 10 mph 1029.7mb 37f 33f
9:54am 8 10 mph 1029.6mb 37f 33f
9:48am 9 10 mph 1029.6mb 37f 33f
9:42am 6 10 mph 1029.7mb 37f 33f
9:36am 7 9 mph 1029.5mb 37f 33f
9:30am 6 8 mph 1029.6mb 37f 32f
9:24am 7 9 mph 1029.6mb 37f 32f
9:18am 8 13 mph 1029.5mb 37f 32f
9:12am 6 9 mph 1029.6mb 37f 32f
9:06am 9 11 mph 1029.4mb 37f 32f
9:00am 9 11 mph 1029.4mb 37f 32f
8:54am 10 13 mph 1029.3mb 37f 32f
8:48am 9 13 mph 1029.2mb 37f 32f
8:42am 9 13 mph 1029.3mb 36f 32f
8:36am 11 14 mph 1029.5mb 36f 32f
8:30am 10 14 mph 1029.5mb 36f 32f
8:24am 8 10 mph 1029.6mb 36f 32f
8:18am 10 13 mph 1029.5mb 36f 32f
8:12am 9 13 mph 1029.6mb 36f 32f
8:06am 9 13 mph 1029.6mb 36f 32f
8:00am 10 14 mph 1029.4mb 36f 32f
7:54am 8 13 mph 1029.3mb 36f 32f
7:48am 8 11 mph 1029.4mb 36f 32f
7:42am 9 11 mph 1029.4mb 36f 32f
7:36am 8 10 mph 1029.2mb 36f 32f
7:30am 9 11 mph 1029.3mb 37f 32f
7:24am 8 9 mph 1029.2mb 37f 32f
7:18am 7 9 mph 1029.2mb 37f 32f
7:12am 7 9 mph 1029.2mb 37f 32f
7:06am 7 9 mph 1029.2mb 37f 32f
7:00am 8 10 mph 1029.1mb 37f 32f
6:54am 8 11 mph 1029.1mb 37f 33f
6:48am 9 11 mph 1029mb 37f 33f
6:42am 9 13 mph 1029.1mb 37f 33f
6:36am 9 11 mph 1029mb 37f 33f
6:30am 8 11 mph 1029.1mb 38f 33f
6:24am 8 11 mph 1028.8mb 38f 33f
6:18am 8 10 mph 1028.9mb 38f 33f
6:12am 8 10 mph 1028.7mb 38f 33f
6:06am 8 10 mph 1028.8mb 38f 33f
6:00am 7 10 mph 1028.7mb 38f 34f
5:54am 6 8 mph 1028.7mb 38f 34f
5:48am 7 8 mph 1028.7mb 38f 34f
5:42am 7 8 mph 1028.4mb 38f 34f
5:36am 7 8 mph 1028.4mb 38f 34f
5:30am 7 10 mph 1028.3mb 38f 34f
5:24am 8 10 mph 1028.1mb 38f 35f
5:18am 7 9 mph 1028.2mb 38f 35f
5:12am 8 11 mph 1028mb 38f 35f
5:06am 8 9 mph 1028mb 38f 35f
5:00am 8 9 mph 1027.8mb 37f 35f
4:54am 8 9 mph 1028mb 37f 35f
4:48am 8 10 mph 1027.8mb 37f 35f
4:42am 8 10 mph 1027.9mb 37f 35f
4:36am 9 10 mph 1027.5mb 37f 35f
4:30am 9 11 mph 1027.5mb 37f 35f
4:24am 9 10 mph 1027.3mb 37f 35f
4:18am 7 11 mph 1027.1mb 37f 36f
4:12am 9 10 mph 1027.1mb 37f 35f
4:06am 8 9 mph 1026.8mb 37f 35f
4:00am 6 9 mph 1026.6mb 37f 36f
3:54am 7 9 mph 1026.6mb 37f 36f
3:48am 5 8 mph 1026.6mb 37f 36f
3:42am 6 9 mph 1026.3mb 37f 36f
3:36am 6 9 mph 1026.2mb 37f 36f
3:30am 6 8 mph 1026.2mb 37f 36f
3:24am 5 7 mph 1026.2mb 37f 35f
3:18am 3 6 mph 1026.1mb 37f 35f
3:12am 3 3 mph 1026mb 37f 35f
3:06am 3 5 mph 1025.9mb 37f 35f
3:00am 2 6 mph 1025.9mb 37f 35f
2:54am 3 5 mph 1025.6mb 37f 35f
2:48am 3 6 mph 1025.7mb 37f 35f
2:42am 5 9 mph 1025.6mb 37f 36f
2:36am 8 9 mph 1025.4mb 37f 37f
2:30am 6 8 mph 1025.6mb 37f 37f
2:24am 6 9 mph 1025.6mb 37f 37f
2:18am 7 10 mph 1025.4mb 37f 38f
2:12am 9 11 mph 1025.3mb 37f 38f
2:06am 7 11 mph 1025.2mb 37f 38f
2:00am 10 13 mph 1025mb 37f 38f
1:54am 9 11 mph 1024.8mb 37f 38f
1:48am 8 10 mph 1025mb 37f 38f
1:42am 8 11 mph 1025mb 37f 38f
1:36am 8 10 mph 1024.7mb 37f 38f
1:30am 7 10 mph 1024.6mb 37f 38f
1:24am 6 8 mph 1024.7mb 37f 38f
1:18am 7 10 mph 1024.6mb 37f 38f
1:12am 8 13 mph 1024.5mb 37f 39f
1:06am 9 11 mph 1024.2mb 37f 39f
1:00am 7 13 mph 1024.2mb 37f 39f
12:54am 9 15 mph 1024.4mb 37f 39f
12:48am 10 13 mph 1024mb 37f 39f
12:42am 9 13 mph 1024.2mb 37f 39f
12:36am 9 11 mph 1024.1mb 37f 39f
12:30am 9 13 mph 1024mb 37f 40f
12:24am 11 15 mph 1023.6mb 37f 40f
12:18am 9 13 mph 1023.5mb 37f 40f
12:12am 9 14 mph 1023.6mb 37f 40f
12:06am 9 16 mph 1023.4mb 37f 40f
12:00am 10 16 mph 1023.4mb 37f 40f
Fri 02/16 11:54pm 10 14 mph 1023.4mb 37f 40f
11:48pm 13 14 mph 1023.3mb 37f 40f
11:42pm 10 15 mph 1023mb 37f 40f
11:36pm 10 15 mph 1022.9mb 37f 41f
11:30pm 10 14 mph 1022.9mb 37f 41f
11:24pm 9 14 mph 1022.7mb 37f 41f
11:18pm 8 13 mph 1022.6mb 37f 41f
11:12pm 8 13 mph 1022.5mb 37f 41f
11:06pm 8 11 mph 1022.4mb 37f 41f
11:00pm 10 16 mph 1022.2mb 37f 42f
10:54pm 8 13 mph 1022mb 37f 42f
10:48pm 9 13 mph 1022mb 37f 41f
10:42pm 10 15 mph 1021.9mb 37f 41f
10:36pm 13 16 mph 1021.9mb 37f 42f
10:30pm 15 21 mph 1021.7mb 37f 42f
10:24pm 15 18 mph 1021.7mb 37f 42f
10:18pm 9 18 mph 1021.7mb 37f 42f
10:12pm 10 15 mph 1021.5mb 37f 42f
10:06pm 10 15 mph 1021.4mb 37f 43f
10:00pm 10 21 mph 1021.1mb 37f 42f
9:54pm 14 22 mph 1021mb 37f 43f
9:48pm 11 25 mph 1020.9mb 37f 43f
9:42pm 14 24 mph 1020.8mb 37f 43f
9:36pm 8 17 mph 1020.7mb 37f 43f
9:30pm 10 20 mph 1020.5mb 37f 43f
9:24pm 14 18 mph 1020.3mb 37f 43f
9:18pm 13 17 mph 1020.1mb 37f 43f
9:12pm 15 21 mph 1019.8mb 37f 44f
9:06pm 16 23 mph 1019.6mb 37f 44f
9:00pm 15 22 mph 1019.2mb 37f 44f
8:54pm 14 17 mph 1019mb 37f 44f
8:48pm 14 16 mph 1018.7mb 37f 44f
8:42pm 10 17 mph 1018.5mb 37f 45f
8:36pm 15 21 mph 1018mb 37f 46f
8:30pm 15 22 mph 1017.9mb 37f 46f
8:24pm 16 22 mph 1017.6mb 37f 46f
8:18pm 16 22 mph 1017.5mb 37f 46f
8:12pm 17 25 mph 1017.3mb 38f 46f
8:06pm 22 26 mph 1017mb 38f 47f
8:00pm 17 24 mph 1016.8mb 38f 47f
7:54pm 17 24 mph 1016.6mb 38f 47f
7:48pm 15 21 mph 1016.4mb 38f 47f
7:42pm 15 22 mph 1016.3mb 38f 47f
7:36pm 15 24 mph 1016.2mb 38f 48f
7:30pm 18 25 mph 1015.9mb 38f 48f
7:24pm 15 24 mph 1015.6mb 38f 48f
7:18pm 13 23 mph 1015.6mb 38f 48f
7:12pm 17 25 mph 1015.3mb 39f 49f
7:06pm 15 22 mph 1014.9mb 39f 49f
7:00pm 16 25 mph 1014.8mb 39f 49f
6:54pm 18 28 mph 1014.9mb 39f 49f
6:48pm 17 28 mph 1014.9mb 40f 50f
6:42pm 20 23 mph 1014.4mb 40f 50f
6:36pm 14 21 mph 1014.1mb 40f 50f
6:30pm 10 20 mph 1013.9mb 40f 50f
6:24pm 15 22 mph 1013.7mb 40f 51f
6:18pm 14 22 mph 1013mb 40f 51f
6:12pm 17 23 mph 1012.8mb 40f 51f
6:06pm 14 21 mph 1012.6mb 40f 51f
6:00pm 13 23 mph 1012.1mb 40f 52f
5:54pm 13 22 mph 1012.1mb 40f 52f
5:48pm 13 20 mph 1012.2mb 40f 52f
5:42pm 15 22 mph 1011.8mb 40f 52f
5:36pm 11 16 mph 1011.8mb 39f 52f
5:30pm 15 21 mph 1011.6mb 39f 53f
5:24pm 10 17 mph 1011.3mb 39f 52f
5:18pm 11 16 mph 1011.2mb 39f 52f
5:12pm 11 22 mph 1011.2mb 39f 52f
5:06pm 13 20 mph 1010.9mb 39f 53f
5:00pm 10 22 mph 1010.9mb 39f 52f
4:54pm 13 22 mph 1010.8mb 39f 52f
4:48pm 14 20 mph 1010.6mb 39f 53f
4:42pm 13 21 mph 1010.4mb 38f 53f
4:36pm 15 21 mph 1010.3mb 38f 53f
4:30pm 13 18 mph 1010.3mb 38f 53f
4:24pm 14 18 mph 1010.1mb 38f 53f
4:18pm 10 15 mph 1009.8mb 38f 52f
4:12pm 10 15 mph 1009.6mb 38f 53f
4:06pm 10 14 mph 1009.6mb 38f 53f
4:00pm 14 20 mph 1009.5mb 37f 53f
3:54pm 10 13 mph 1009.2mb 38f 53f
3:48pm 9 13 mph 1009.3mb 38f 53f
3:42pm 9 15 mph 1009mb 38f 52f
3:36pm 13 16 mph 1008.5mb 38f 53f
3:30pm 16 20 mph 1008.8mb 38f 53f
3:24pm 15 25 mph 1008.9mb 37f 53f
3:18pm 16 29 mph 1008.7mb 37f 53f
3:12pm 17 24 mph 1008.6mb 38f 53f
3:06pm 18 25 mph 1008.2mb 37f 54f
3:00pm 16 23 mph 1008.1mb 37f 53f
2:54pm 13 21 mph 1007.8mb 37f 53f
2:48pm 15 21 mph 1007.5mb 37f 53f
2:42pm 15 23 mph 1007.5mb 37f 53f
2:36pm 17 26 mph 1007.4mb 37f 53f
2:30pm 22 30 mph 1007.1mb 37f 53f
2:24pm 16 31 mph 1007mb 36f 53f
2:18pm 22 29 mph 1006.6mb 36f 56f
2:12pm 5 16 mph 1005.9mb 37f 60f
2:06pm 7 15 mph 1005.8mb 37f 60f
2:00pm 5 7 mph 1005.6mb 36f 60f
1:54pm 6 8 mph 1005.6mb 36f 60f
1:48pm 3 9 mph 1005.6mb 36f 60f
1:42pm 5 8 mph 1005.6mb 36f 60f
1:36pm 7 11 mph 1005.7mb 36f 60f
1:30pm 6 10 mph 1005.6mb 36f 60f
1:24pm 7 11 mph 1005.5mb 36f 60f
1:18pm 5 10 mph 1005.5mb 36f 60f
1:12pm 6 11 mph 1005.6mb 36f 60f
1:06pm 6 10 mph 1005.7mb 36f 60f
1:00pm 5 9 mph 1005.6mb 36f 60f
12:54pm 6 10 mph 1005.5mb 36f 60f
12:48pm 5 8 mph 1005.4mb 36f 60f
12:42pm 3 8 mph 1005.5mb 36f 60f
12:36pm 5 7 mph 1005.3mb 36f 60f
12:30pm 5 7 mph 1005.4mb 36f 60f
12:24pm 3 8 mph 1005.6mb 36f 60f
12:18pm 5 8 mph 1005.7mb 36f 60f
12:12pm 6 8 mph 1005.4mb 36f 60f
12:06pm 3 7 mph 1005.3mb 36f 60f
12:00pm 5 9 mph 1005.6mb 36f 60f
11:54am 5 9 mph 1005.5mb 36f 60f
11:48am 6 9 mph 1005.7mb 36f 59f
11:42am 5 8 mph 1005.7mb 36f 59f
11:36am 3 8 mph 1005.7mb 36f 59f
11:30am 5 8 mph 1005.8mb 36f 59f
11:24am 3 8 mph 1005.6mb 36f 59f
11:18am 6 9 mph 1005.8mb 36f 59f
11:12am 6 8 mph 1005.7mb 36f 59f
11:06am 3 7 mph 1005.8mb 36f 59f
11:00am 3 8 mph 1005.8mb 36f 58f
10:54am 5 7 mph 1005.4mb 36f 58f
10:48am 5 7 mph 1005.6mb 36f 58f
10:42am 5 8 mph 1005.5mb 36f 58f
10:36am 3 6 mph 1005.3mb 36f 58f
10:30am 2 7 mph 1005.6mb 36f 58f
10:24am 3 7 mph 1006mb 36f 58f
10:18am 3 6 mph 1005.8mb 37f 58f
10:12am 2 6 mph 1005.8mb 37f 58f
10:06am 3 6 mph 1006mb 37f 58f
10:00am 3 6 mph 1006.3mb 37f 58f
9:54am 3 7 mph 1006.6mb 37f 58f
9:48am 5 6 mph 1006.4mb 37f 57f
9:42am 2 5 mph 1006.2mb 37f 57f
9:36am 2 5 mph 1006.2mb 37f 58f
9:30am 3 5 mph 1006.1mb 37f 58f
9:24am 2 6 mph 1005.9mb 37f 58f
9:18am 3 6 mph 1006.2mb 37f 58f
9:12am 3 6 mph 1006.3mb 37f 58f
9:06am 3 6 mph 1006.1mb 37f 58f
9:00am 5 7 mph 1006.1mb 37f 58f
8:54am 2 5 mph 1006mb 37f 58f
8:48am 3 7 mph 1005.9mb 37f 58f
8:42am 6 8 mph 1005.9mb 37f 58f
8:36am 3 6 mph 1005.9mb 37f 58f
8:30am 6 8 mph 1005.9mb 37f 58f
8:24am 5 7 mph 1006mb 37f 58f
8:18am 6 7 mph 1006mb 37f 58f
8:12am 5 7 mph 1006.1mb 37f 58f
8:06am 6 7 mph 1006mb 37f 58f
8:00am 3 7 mph 1006.1mb 37f 58f
7:54am 6 8 mph 1005.8mb 37f 58f
7:48am 6 9 mph 1005.8mb 38f 58f
7:42am 6 9 mph 1005.8mb 38f 58f
7:36am 7 9 mph 1005.7mb 38f 59f
7:30am 7 10 mph 1005.6mb 38f 59f
7:24am 6 11 mph 1005.4mb 37f 59f
7:18am 6 11 mph 1005.3mb 37f 59f
7:12am 6 10 mph 1005.3mb 37f 59f
7:06am 6 9 mph 1005.1mb 37f 59f
7:00am 7 10 mph 1005.1mb 37f 59f
6:54am 6 11 mph 1004.8mb 38f 59f
6:48am 9 11 mph 1004.6mb 38f 59f
6:42am 6 10 mph 1004.3mb 38f 59f
6:36am 7 14 mph 1004.3mb 38f 60f
6:30am 9 14 mph 1004.1mb 38f 60f
6:24am 8 14 mph 1004.2mb 38f 60f
6:18am 7 13 mph 1003.8mb 38f 60f
6:12am 7 11 mph 1003.7mb 38f 59f
6:06am 6 11 mph 1003.7mb 38f 59f
6:00am 7 14 mph 1003.9mb 38f 59f
5:54am 7 13 mph 1003.8mb 38f 59f
5:48am 9 14 mph 1003.6mb 38f 59f